Location: La Comballaz
(46.3780°N, 7.0817°E)
Time: 17:32:38
(UTC+00:00)

Cosmos 1656 - Pass Details

Date: 09 April 2020
Orbit: 798 x 849 km, 71.1° (Epoch: 23 May)

Event Time Altitude Azimuth Distance (km) Brightness Sun altitude
Rises 19:40:59 0° 338° (NNW) 3,422 7.7 -15.2°
Reaches altitude 10° 19:43:40 10° 346° (NNW) 2,480 6.8 -15.6°
Maximum altitude 19:48:54 37° 53° (NE) 1,295 4.5 -16.3°
Enters shadow 19:51:25 25° 101° (E) 1,639 4.7 -16.7°
